Location: Aniagüita
(10.0946°N, 66.9708°W)
Time: 15:37:24
(UTC+00:00)

H-2A R/B - Pass Details

Date: 30 June 2022
Orbit: 577 x 651 km, 98.5° (Epoch: 06 August)

Event Time Altitude Azimuth Distance (km) Brightness Sun altitude
Rises 23:33:10 0° 39° (NE) 2,947 5.4 -9.9°
Reaches altitude 10° 23:36:01 10° 59° (ENE) 2,045 4.4 -10.5°
Maximum altitude 23:38:59 18° 101° (E) 1,609 3.6 -11.1°
Enters shadow 23:40:19 16° 122° (ESE) 1,708 3.7 -11.4°
